Terminal Aerodrome Forecast
Issued by NWS St Louis, MO

Home | Current Version | Previous Version | Text Only | Print | Product List | Glossary On
Versions: 1 2 3 4 5 6 7 8 9 10 11 12 13 14 15 16 17 18 19 20 21 22 23 24 25
000
FTUS43 KLSX 041551 AAB
TAFCOU
TAF AMD
KCOU 041551Z 0416/0512 18005KT 3SM -RA BR OVC005
      TEMPO 0416/0418 1SM -RASN BR
     FM041800 23006KT P6SM OVC008
     FM042000 27007KT P6SM OVC015
     FM042200 28007KT P6SM BKN020
     FM042300 27006KT P6SM SKC
     FM050700 VRB03KT 5SM BR FEW250=

USA.gov is the U.S. government's official web portal to all federal, state and local government web resources and services.